User: anonymous   Login
Location: Albany
(35.0000°S, 118.0000°E)
Time: 19:24:14
(UTC-05:00)
Language:

Transit 2A - Orbit

View from above orbital plane
View from above orbital plane
View from above satellite
View from above satellite

Ground track
Ground track

The orbit data is extracted from the following two-line orbital elements,

1 00045U 60007A   17021.53485607 -.00000068  00000-0  97213-5 0  9993
2 00045  66.6946  55.9546 0251169 141.6004 220.3277 14.33532813944544
Epoch (UTC): 21 January 2017 12:50:11
Eccentricity: 0.0251169
inclination: 66.6946°
perigee height: 600 km
apogee height: 960 km
right ascension of ascending node: 55.9546°
argument of perigee: 141.6004°
revolutions per day: 14.33532813
mean anomaly at epoch: 220.3277°
orbit number at epoch: 94454

The dashed part of the orbit path shows where the satellite is in the earth's shadow,  

DLR